Location: Peterborough
(44.3091°N, 78.3197°W)
Time: 06:08:58
(UTC-04:00)

Envisat - Visible Passes

Search period start: 29 May 2024 00:00
Search period end: 08 June 2024 00:00
Orbit: 762 x 764 km, 98.3° (Epoch: 28 May)

Date Brightness Start Highest point End Pass type
(mag) Time Alt. Az. Time Alt. Az. Time Alt. Az.
29 May 4.6 03:49:15 10° NNE 03:53:46 31° E 03:58:14 10° SSE visible
30 May 5.5 03:13:19 10° ENE 03:16:02 14° E 03:18:44 10° ESE visible
30 May 3.0 04:50:28 10° N 04:55:32 73° WNW 05:00:35 10° SSW visible
31 May 3.7 04:13:11 10° NNE 04:18:09 52° E 04:23:05 10° S visible
01 Jun 4.9 03:36:28 10° NE 03:40:34 24° E 03:44:37 10° SSE visible
02 Jun 5.7 03:01:42 10° ENE 03:02:45 11° E 03:03:47 10° E visible
02 Jun 3.1 04:37:20 10° NNE 04:42:26 87° ESE 04:47:31 10° SSW visible
03 Jun 4.2 04:00:13 10° NNE 04:04:59 40° E 04:09:43 10° SSE visible
04 Jun 5.3 03:23:50 10° NE 03:27:19 18° E 03:30:48 10° SE visible
05 Jun 3.3 04:24:15 10° NNE 04:29:19 67° ESE 04:34:21 10° S visible
06 Jun 4.6 03:47:19 10° NE 03:51:48 30° E 03:56:14 10° SSE visible
07 Jun 5.5 03:11:26 10° ENE 03:14:03 14° E 03:16:39 10° ESE visible
07 Jun 3.0 04:48:30 10° N 04:53:35 75° WNW 04:58:37 10° SSW visible
